Location: Astronomy Club of Akron Observatory
(40.9700°N, 81.5606°W)
Time: 16:37:19
(UTC-04:00)

N. Korean satellite - Pass Details

Date: 26 February 2019
Orbit: 456 x 510 km, 97.2° (Epoch: 22 March)

Event Time Altitude Azimuth Distance (km) Brightness Sun altitude
Rises 06:30:57 0° 14° (NNE) 2,488 10.3 -7.3°
Reaches altitude 10° 06:33:01 10° 17° (NNE) 1,606 9.4 -6.9°
Maximum altitude 06:36:27 69° 101° (E) 492 6.9 -6.2°
Drops below altitude 10° 06:39:50 10° 185° (S) 1,590 9.2 -5.6°
Sets 06:41:52 0° 188° (S) 2,461 10.1 -5.2°
